Location: La Oliva
(42.2466°N, 2.9955°E)
Time: 08:06:03
(UTC+00:00)

Meteor 1-4 Rocket - Pass Details

Date: 22 April 2021
Orbit: 448 x 499 km, 81.2° (Epoch: 07 May)

Event Time Altitude Azimuth Distance (km) Brightness Sun altitude
Exits shadow 20:50:33 37° 31° (NNE) 735 3.5 -22.0°
Drops below altitude 10° 20:52:51 10° 16° (NNE) 1,617 5.5 -22.3°
Sets 20:54:58 0° 13° (NNE) 2,506 6.6 -22.6°
